KI7NNK-9 messages


fromtotime message
KI7NNK-1 KI7NNK-9 09/01 02:48:55z Reply P6h 01/27%/.01{IQZ51
KI7NNK-1 KI7NNK-9 09/01 02:47:55z Reply P6h 02/27%/.01 03/17%/.01 04/17%/.01 05/17%/.01 06/8%/.00 07/8%/.00{0CU0J
KI7NNK-1 KI7NNK-9 09/01 02:47:55z Reply P6h 20/65%/.04 21/50%/.04 22/50%/.04 23/50%/.04 00/27%/.01{ERKRJ
KI7NNK-9 KI7NNK-1 09/01 02:47:53z Send another wx f h p 84093{38
KI7NNK-9 KU7NNK-1 08/31 23:12:31z Send another wx f h p here{65
KI7NNK-9 KI7NNK-1 08/31 17:09:23z Send another ask limit reached?{64
KI7NNK-9 KI7NNK 08/31 13:20:23z Send another png f{63
KI7NNK-9 KI7NNK 08/31 13:16:17z Send another ask limit reset?{62
KI7NNK-9 KI7NNK-10 08/29 04:59:26z Send another chk{61
KI7NNK-9 KI7NNK-10 08/29 01:06:56z Send another png{60
KI7NNK-10 KI7NNK-9 08/29 01:05:34z Reply OK RX RF{60
KI7NNK-9 KI7NNK-10 08/28 22:50:10z Send another png{59
KI7NNK-9 KI7NNK-10 08/28 22:45:37z Send another chk{58
KI7NNK-9 KI7NNK-10 08/28 22:43:06z Send another chk f {57
KI7NNK-9 KI7NNK-10 08/28 01:58:29z Send another ask f tsuk{55
KI7NNK-10 KI7NNK-9 08/28 01:56:52z Reply vaulting horse followed by a back flip.{9873T
KI7NNK-10 KI7NNK-9 08/28 01:56:52z Reply Tsuk (Tsukahara) is a gymnastics vault: a half-turn onto the{59HS3
KI7NNK-9 KI7NNK-10 08/28 01:55:50z Send another ask f tsuk gymnastics{56
KI7NNK-10 KI7NNK-9 08/28 01:55:21z Reply context if you meant something else.{ZBWNO
KI7NNK-10 KI7NNK-9 08/28 01:55:21z Reply TSUK (Thames Surfing and Ukulele Club). Please provide more{YSJ2A
KI7NNK-10 KI7NNK-9 08/28 01:55:21z Reply TSUK can refer to Tsukuba Circuit (famous Japanese racetrack) or{YEERC
KI7NNK-10 KI7NNK-9 08/28 01:39:47z Reply In sports like soccer, SUK Timer (or injury time) refers to.{54
KI7NNK-9 KI7NNK-10 08/28 01:38:46z Send another ask suk timer{54
KI7NNK-9 KI7NNK-10 08/28 01:35:36z Send another png{53
KI7NNK-10 KI7NNK-9 08/28 01:34:04z Reply RFZ: APRSIS up; RF up; webhook working.{52
KI7NNK-10 KI7NNK-9 08/28 01:33:27z Reply OK RX APRSIS{53
KI7NNK-9 KI7NNK-10 08/28 01:33:04z Send another srv rfz{52
KI7NNK-9 KI7NNK-10 08/28 01:31:50z Send another srv f immich{51
KI7NNK-10 KI7NNK-9 08/28 01:30:55z Reply Immich version 3.1.0.{FLZKX
KI7NNK-10 KI7NNK-9 08/28 01:30:55z Reply IMMICH: UP; HTTP class 2xx; latency 27ms.{ET8T7
KI7NNK-10 KI7NNK-9 08/28 01:29:55z Reply SRV privacy: raw body, headers, URLs and secrets suppressed.{0U8L3
KI7NNK-9 KI7NNK-10 08/28 01:28:41z Send another srv immich{50
KI7NNK-9 KI7NNK-10 08/28 01:27:34z Send another wx f near me{49
KI7NNK-10 KI7NNK-9 08/28 01:26:48z Reply IMMICH: UP.{50
KI7NNK-10 KI7NNK-9 08/28 01:25:12z Reply Friday Night: 62F, Sct Showers And T-storms, PoP 39%.{WIEC3
KI7NNK-10 KI7NNK-9 08/28 01:25:12z Reply Friday: 92F, Ptly Sunny then Iso Showers And T-storms, PoP 26%.{9YYRP
KI7NNK-10 KI7NNK-9 08/28 01:25:12z Reply Tonight: 68F, Sct Showers And T-storms then Mstly Cloudy, PoP 32%.{4VHVJ
KI7NNK-10 KI7NNK-9 08/26 21:56:31z Reply Sandy, UT: 95F, Isolated Showers And Thunderstorms, wind 5 mph NW.{48
KI7NNK-9 KI7NNK-10 08/26 21:55:29z Send another wx near me{48
KI7NNK-10 KI7NNK-9 08/26 21:35:13z Reply Draper, UT: 94F, Isolated Showers And Thunderstorms, wind 5 mph NW.{47
KI7NNK-9 KI7NNK-10 08/26 21:34:11z Send another wx near me{47
KI7NNK-9 KI7NNK-10 08/25 17:31:00z Send another png{45
KI7NNK-10 KI7NNK-9 08/25 17:28:05z Reply OK RX APRSIS{45
KI7NNK-10 KI7NNK-9 08/25 01:07:11z Reply WX location not found: 83092 fukl{44
KI7NNK-9 KI7NNK-10 08/25 01:06:10z Send another wx 83092 fukl{44
KI7NNK-9 KI7NNK-10 08/21 16:20:18z Send another AA:146.540
KI7NNK-10 KI7NNK-9 08/21 16:20:11z Reply TEMP 72F{43
KI7NNK-9 KI7NNK-10 08/21 16:20:07z Send another temP{43
KI7NNK-9 KI7NNK-10 08/20 23:45:27z Send another TEMP{42
KI7NNK-9 KI7NNK-10 08/20 23:30:54z Send another TEMP{41
KI7NNK-9 KI7NNK-10 08/20 23:24:25z Send another temp{40